Weather History for North Bend, OR

Change the Weather History Date:

Tuesday, September 4, 2012

  Actual Average Record
Temperature  
Mean Temperature 55 °F 59 °F  
Max Temperature 61 °F 66 °F 84 °F (1973)
Min Temperature 48 °F 52 °F 40 °F (1921)
Degree Days  
Heating Degree Days 10 6  
Month to date heating degree days 35 24  
Since 1 July heating degree days 366 403  
Cooling Degree Days 0 0  
Month to date cooling degree days 0 0  
Year to date cooling degree days 0 1  
Growing Degree Days 5 (Base 50)    
Moisture  
Dew Point 53 °F    
Average Humidity 94    
Maximum Humidity 100    
Minimum Humidity 80    
Precipitation  
Precipitation 0.00 in 0.04 in 0.69 in (1945)
Month to date precipitation 0.00 0.14  
Year to date precipitation 28.80 37.38  
Sea Level Pressure  
Sea Level Pressure 30.10 in    
Wind  
Wind Speed 12 mph (North)    
Max Wind Speed 30 mph    
Max Gust Speed 35 mph    
Visibility 6 miles    
Events      
T = Trace of Precipitation, MM = Missing Value Source: NWS Daily Summary

Daily Weather History Graph

Daily Weather History Graph

Search for Another Location

Airport:

Trip Planner

Search our weather history database for the weather conditions in past years. The results will help you decide how hot, cold, wet, or windy it might be!

Date:

Astronomy

Sep. 04, 2012 Rise Set
Actual Time 6:44 AM PDT 7:45 PM PDT
Civil Twilight 6:15 AM PDT 8:14 PM PDT
Nautical Twilight 5:40 AM PDT 8:49 PM PDT
Astronomical Twilight 5:04 AM PDT 9:26 PM PDT
Moon 9:32 PM PDT (9/4) 11:06 AM PDT (9/4)
Length of Visible Light 13h 59m
Length of Day
13h 00m
Waning Gibbous, 83% of the Moon is Illuminated
Sep 4
Waning Gibbous
Sep 8
Last Quarter
Sep 15
New
Sep 22
First Quarter
Sep 29
Full

Hourly Weather History & Observations

Time (PDT) Temp. Dew Point Humidity Pressure Visibility Wind Dir Wind Speed Gust Speed Precip Events Conditions
12:15 AM 53.6 °F 51.8 °F 94% 30.11 in 1.0 mi NW 3.5 mph - N/A   Overcast
12:35 AM 53.6 °F 53.6 °F 100% 30.11 in 0.8 mi NW 4.6 mph - N/A   Overcast
12:55 AM 53.6 °F 53.6 °F 100% 30.11 in 0.2 mi North 3.5 mph - N/A   Overcast
1:15 AM 51.8 °F 51.8 °F 100% 30.11 in 0.2 mi Calm Calm - N/A   Overcast
1:35 AM 51.8 °F 51.8 °F 100% 30.11 in 0.2 mi Calm Calm - N/A   Overcast
1:55 AM 51.8 °F 51.8 °F 100% 30.11 in 0.2 mi Calm Calm - N/A   Overcast
2:15 AM 51.8 °F 51.8 °F 100% 30.11 in 0.2 mi Calm Calm - N/A   Overcast
2:35 AM 53.6 °F 53.6 °F 100% 30.11 in 0.2 mi Calm Calm - N/A   Overcast
2:55 AM 51.8 °F 51.8 °F 100% 30.11 in 0.2 mi Calm Calm - N/A   Overcast
3:15 AM 51.8 °F 51.8 °F 100% 30.12 in 0.2 mi Calm Calm - N/A   Overcast
3:35 AM 51.8 °F 50.0 °F 94% 30.12 in 0.5 mi Calm Calm - N/A   Overcast
3:55 AM 51.8 °F 50.0 °F 94% 30.12 in 0.5 mi NNW 4.6 mph - N/A   Overcast
4:15 AM 51.8 °F 51.8 °F 100% 30.11 in 0.8 mi North 5.8 mph - N/A   Overcast
4:35 AM 51.8 °F 51.8 °F 100% 30.12 in 1.2 mi North 5.8 mph - N/A   Overcast
4:55 AM 51.8 °F 51.8 °F 100% 30.12 in 1.0 mi North 3.5 mph - N/A   Overcast
5:15 AM 51.8 °F 50.0 °F 94% 30.12 in 0.5 mi NNE 4.6 mph - N/A   Overcast
5:35 AM 51.8 °F 50.0 °F 94% 30.12 in 0.5 mi NNE 3.5 mph - N/A   Overcast
5:55 AM 51.8 °F 50.0 °F 94% 30.12 in 0.2 mi Calm Calm - N/A   Overcast
6:15 AM 51.8 °F 51.8 °F 100% 30.12 in 0.2 mi NE 3.5 mph - N/A   Overcast
6:35 AM 51.8 °F 51.8 °F 100% 30.13 in 0.2 mi Calm Calm - N/A   Overcast
6:55 AM 50.0 °F 50.0 °F 100% 30.13 in 0.2 mi Calm Calm - N/A   Overcast
7:15 AM 50.0 °F 50.0 °F 100% 30.14 in 0.2 mi WNW 3.5 mph - N/A   Overcast
7:35 AM 50.0 °F 50.0 °F 100% 30.14 in 0.2 mi NNW 3.5 mph - N/A   Overcast
7:55 AM 50.0 °F 50.0 °F 100% 30.14 in 0.2 mi Calm Calm - N/A   Overcast
8:15 AM 50.0 °F 48.2 °F 94% 30.14 in 0.2 mi NW 3.5 mph - N/A   Overcast
8:35 AM 50.0 °F 50.0 °F 100% 30.14 in 0.2 mi Calm Calm - N/A   Overcast
8:55 AM 51.8 °F 50.0 °F 94% 30.14 in 0.5 mi NNW 3.5 mph - N/A   Overcast
9:15 AM 51.8 °F 51.8 °F 100% 30.14 in 1.0 mi North 3.5 mph - N/A   Overcast
9:35 AM 51.8 °F 51.8 °F 100% 30.14 in 1.0 mi NNW 5.8 mph - N/A   Overcast
9:55 AM 53.6 °F 53.6 °F 100% 30.14 in 4.0 mi NNW 5.8 mph - N/A   Overcast
10:15 AM 55.4 °F 53.6 °F 94% 30.14 in 10.0 mi North 5.8 mph - N/A   Scattered Clouds
10:35 AM 57.2 °F 53.6 °F 88% 30.13 in 10.0 mi North 6.9 mph - N/A   Clear
10:55 AM 59.0 °F 53.6 °F 82% 30.13 in 10.0 mi NNW 15.0 mph - N/A   Clear
11:15 AM 59.0 °F 53.6 °F 82% 30.12 in 10.0 mi North 17.3 mph 21.9 mph N/A   Clear
11:35 AM 60.8 °F 53.6 °F 77% 30.12 in 10.0 mi North 15.0 mph 20.7 mph N/A   Clear
11:55 AM 57.2 °F 53.6 °F 88% 30.12 in 10.0 mi NNW 20.7 mph 24.2 mph N/A   Clear
12:15 PM 57.2 °F 53.6 °F 88% 30.11 in 10.0 mi NNW 20.7 mph - N/A   Clear
12:35 PM 57.2 °F 53.6 °F 88% 30.11 in 10.0 mi North 24.2 mph - N/A   Clear
12:55 PM 59.0 °F 53.6 °F 82% 30.10 in 10.0 mi North 25.3 mph 29.9 mph N/A   Clear
1:15 PM 60.8 °F 53.6 °F 77% 30.10 in 10.0 mi North 23.0 mph 29.9 mph N/A   Clear
1:35 PM 59.0 °F 53.6 °F 82% 30.10 in 10.0 mi North 26.5 mph 33.4 mph N/A   Clear
1:55 PM 60.8 °F 55.4 °F 82% 30.10 in 10.0 mi North 25.3 mph 34.5 mph N/A   Clear
2:15 PM 60.8 °F 55.4 °F 82% 30.10 in 10.0 mi North 27.6 mph 34.5 mph N/A   Partly Cloudy
2:35 PM 60.8 °F 55.4 °F 82% 30.09 in 10.0 mi North 24.2 mph 32.2 mph N/A   Clear
2:55 PM 60.8 °F 55.4 °F 82% 30.08 in 10.0 mi North 29.9 mph 34.5 mph N/A   Clear
3:15 PM 60.8 °F 55.4 °F 82% 30.08 in 10.0 mi North 27.6 mph 33.4 mph N/A   Clear
3:35 PM 60.8 °F 55.4 °F 82% 30.08 in 10.0 mi North 23.0 mph 31.1 mph N/A   Clear
3:55 PM 60.8 °F 55.4 °F 82% 30.07 in 10.0 mi North 24.2 mph 31.1 mph N/A   Clear
4:15 PM 60.8 °F 55.4 °F 82% 30.07 in 10.0 mi North 26.5 mph 32.2 mph N/A   Clear
4:35 PM 60.8 °F 55.4 °F 82% 30.07 in 10.0 mi North 24.2 mph 32.2 mph N/A   Clear
4:55 PM 59.0 °F 55.4 °F 88% 30.07 in 10.0 mi North 24.2 mph 28.8 mph N/A   Clear
5:55 PM 57.2 °F 55.4 °F 94% 30.06 in 10.0 mi North 24.2 mph 31.1 mph N/A   Clear
6:15 PM 57.2 °F 55.4 °F 94% 30.06 in 10.0 mi North 24.2 mph 29.9 mph N/A   Scattered Clouds
6:35 PM 57.2 °F 55.4 °F 94% 30.06 in 10.0 mi North 26.5 mph 32.2 mph N/A   Scattered Clouds
6:55 PM 57.2 °F 55.4 °F 94% 30.05 in 10.0 mi North 21.9 mph 27.6 mph N/A   Scattered Clouds
7:15 PM 57.2 °F 55.4 °F 94% 30.05 in 10.0 mi North 21.9 mph 27.6 mph N/A   Scattered Clouds
7:35 PM 55.4 °F 55.4 °F 100% 30.05 in 10.0 mi North 20.7 mph 28.8 mph N/A   Scattered Clouds
7:55 PM 55.4 °F 53.6 °F 94% 30.05 in 10.0 mi North 23.0 mph 29.9 mph N/A   Scattered Clouds
8:15 PM 55.4 °F 53.6 °F 94% 30.05 in 10.0 mi North 21.9 mph 25.3 mph N/A   Scattered Clouds
8:35 PM 55.4 °F 55.4 °F 100% 30.06 in 10.0 mi North 13.8 mph 21.9 mph N/A   Scattered Clouds
8:55 PM 55.4 °F 55.4 °F 100% 30.07 in 8.0 mi North 11.5 mph - N/A   Scattered Clouds
9:15 PM 55.4 °F 55.4 °F 100% 30.07 in 8.0 mi North 9.2 mph - N/A   Overcast
9:35 PM 53.6 °F 53.6 °F 100% 30.07 in 7.0 mi North 9.2 mph - N/A   Overcast
9:55 PM 53.6 °F 53.6 °F 100% 30.07 in 7.0 mi North 10.4 mph - N/A   Overcast
10:15 PM 53.6 °F 53.6 °F 100% 30.06 in 6.0 mi North 11.5 mph - N/A   Overcast
10:35 PM 53.6 °F 53.6 °F 100% 30.06 in 6.0 mi North 11.5 mph - N/A   Overcast
10:55 PM 53.6 °F 53.6 °F 100% 30.06 in 6.0 mi North 11.5 mph 18.4 mph N/A   Overcast
11:15 PM 53.6 °F 53.6 °F 100% 30.07 in 10.0 mi North 8.1 mph - N/A   Overcast
11:35 PM 53.6 °F 53.6 °F 100% 30.07 in 10.0 mi North 10.4 mph - N/A   Overcast
11:55 PM 53.6 °F 51.8 °F 94% 30.07 in 9.0 mi North 6.9 mph - N/A   Overcast